Tracking 28794 objects as of 22-Apr-2024
HD Live streaming from Space Station
objects crossing your sky now

SHIYAN 22A (SY-22A)

Track SHIYAN 22A (SY-22A) now!
10-day predictions


NORAD ID: 55242
Int'l Code: 2023-006A
Perigee: 386.4 km
Apogee: 417.0 km
Inclination: 43.2 °
Period: 92.4 minutes
Semi major axis: 6772 km
RCS: Unknown
Launch date: January 13, 2023
Source: People's Republic of China (PRC)
Launch site: Jiuquan Satellite Launch Center, China (JSC)
Your satellite tracking list
Your tracking list is empty




NASA's NSSDC Master Catalog

Two Line Element Set (TLE):
1 55242U 23006A   24112.81501737  .00169593  00000-0  21691-2 0  9995
2 55242  43.1920  96.8385 0022596 113.4589 246.8655 15.57616281 71212
Source of the keplerian elements: AFSPC